Find Starlink 34095

NORAD ID: 63809 Int'l Des: 2025-092 Owner: SPXS Country: US Constellation: starlink operational
LEOCIRCULAR

Current View

Loading 3D Globe...

About Starlink 34095

Starlink 34095 (NORAD 63809) is a starlink constellation satellite (v2 mini) launched May 4, 2025 by SPXS of US. It operates in LEO, CIRCULAR orbit with a mass of 575.00 kg.

About Starlink 34095

Description loading...

Upcoming Passes

Passes for default location (London). Set your location on the main map for personalized predictions.

Altitude History

Loading altitude history...

Two-Line Element Set

1 63809U 25092F 26170.38971430 -.00000834 00000-0 -20765-4 0 9996
2 63809 43.0029 318.6092 0002451 258.8054 101.2522 15.27577844 64169
Epoch: Jun 19, 2026 • Age: 30 hours

Current Status

Altitude 485.1 km
Velocity 7.63 km/s
Sub-Earth Point 30.67°N, 148.78°W
Launch Date May 4, 2025
Age 1.1 years
Type internet

Technical Details

Classification Payload
Mass 575.00 kg
Dry Mass 530.00 kg
Total Mass 575.00 kg
Length 0.30 m
Diameter 4.10 m
Span 29.00 m
Shape Box + pan
Manufacturer SPXS
Bus Type Starlink V2MO
Phase Status In Orbit
Owner/State SPXS/US

Most Searched